Orbital Elements at Epoch 2459200.5 (2020-Dec-17.0) TDB
Reference: JPL 15 (heliocentric ecliptic J2000)
Element | Value | Uncertainty (1-sigma) | Units |
e | .2229686897760567 | 3.5902e-08 | |
a | 2.349645739699778 | 1.129e-08 | au |
q | 1.825748307681025 | 8.4426e-08 | au |
i | 2.108952270666677 | 4.7426e-06 | deg |
node | 324.8819887412084 | 0.00013688 | deg |
peri | 332.45226312 | 0.00013747 | deg |
M | 106.066323342208 | 1.4724e-05 | deg |
tp | 2458812.906020341515 (2019-Nov-25.40602034) | 5.2447e-05 | TDB |
period | 1315.533793199076 3.60 | 9.482e-06 2.596e-08 | d yr |
n | .2736531755102715 | 1.9724e-09 | deg/d |
Q | 2.873543171718531 | 1.3808e-08 | au |
|
| | Orbit Determination Parameters
Additional Information
|